When you browse on this site, cookies collect data to enhance your experience and personalize the content and advertising you see.
Visit our Privacy Policy to learn more. By continuing to use the site, you agree to this use of cookies and data.
  • In Hungary
  • List of Countries
  • For 7 days
  • Water Temperature
  • Weather Map
  • News
  • Weather Widgets
  • user-avatar
    Login

    Hourly Weather Svapusche

    Today, 22 January, Wednesday

    Time Temperature Precipitation Wind Pressure Humidity
    00:00 -3°C° 0 mm 6 mps 733 mmHg 75%
    01:00 -3°C° 0 mm 6 mps 733 mmHg 76%
    02:00 -2°C° 0 mm 5 mps 733 mmHg 77%
    03:00 -2°C° 0 mm 5 mps 732 mmHg 78%
    04:00 -2°C° 0 mm 5 mps 731 mmHg 80%
    05:00 -2°C° 0 mm 5 mps 730 mmHg 81%
    06:00 -2°C° 0.4 mm 5 mps 730 mmHg 85%
    07:00 -2°C° 0.4 mm 5 mps 729 mmHg 90%
    08:00 -2°C° 0.4 mm 5 mps 729 mmHg 94%
    09:00 -2°C° 0.7 mm 5 mps 728 mmHg 90%
    10:00 -2°C° 0.7 mm 5 mps 728 mmHg 86%
    11:00 -3°C° 0.7 mm 6 mps 727 mmHg 83%
    12:00 -3°C° 0.2 mm 6 mps 728 mmHg 79%
    13:00 -3°C° 0.2 mm 6 mps 728 mmHg 76%
    14:00 -2°C° 0.2 mm 5 mps 729 mmHg 73%
    15:00 -4°C° 0.1 mm 5 mps 729 mmHg 75%
    16:00 -4°C° 0.1 mm 5 mps 730 mmHg 77%
    17:00 -5°C° 0.1 mm 5 mps 730 mmHg 80%
    18:00 -5°C° 0 mm 5 mps 731 mmHg 81%
    19:00 -5°C° 0 mm 5 mps 731 mmHg 82%
    20:00 -5°C° 0 mm 5 mps 732 mmHg 83%
    21:00 -6°C° 0.1 mm 6 mps 732 mmHg 83%
    22:00 -6°C° 0.1 mm 6 mps 733 mmHg 82%
    23:00 -8°C° 0.1 mm 6 mps 733 mmHg 82%

    Tomorrow, 23 January, Thursday

    Time Temperature Precipitation Wind Pressure Humidity
    00:00 -8°C° 0.1 mm 6 mps 734 mmHg 79%
    01:00 -8°C° 0.1 mm 6 mps 735 mmHg 75%
    02:00 -8°C° 0.1 mm 6 mps 736 mmHg 72%
    03:00 -8°C° 0 mm 6 mps 736 mmHg 68%
    04:00 -9°C° 0 mm 6 mps 737 mmHg 65%
    05:00 -9°C° 0 mm 6 mps 737 mmHg 61%
    06:00 -8°C° 0 mm 5 mps 737 mmHg 61%
    07:00 -8°C° 0 mm 5 mps 738 mmHg 60%
    08:00 -8°C° 0 mm 5 mps 738 mmHg 59%
    09:00 -7°C° 0 mm 5 mps 738 mmHg 59%
    10:00 -6°C° 0 mm 6 mps 739 mmHg 58%
    11:00 -6°C° 0 mm 6 mps 739 mmHg 58%
    12:00 -5°C° 0 mm 6 mps 739 mmHg 61%
    13:00 -5°C° 0 mm 6 mps 739 mmHg 64%
    14:00 -6°C° 0 mm 7 mps 739 mmHg 67%
    15:00 -5°C° 0 mm 6 mps 739 mmHg 67%
    16:00 -5°C° 0 mm 5 mps 739 mmHg 67%
    17:00 -5°C° 0 mm 4 mps 739 mmHg 67%
    18:00 -5°C° 0 mm 4 mps 740 mmHg 71%
    19:00 -5°C° 0 mm 3 mps 740 mmHg 75%
    20:00 -5°C° 0 mm 3 mps 740 mmHg 78%
    21:00 -5°C° 0 mm 3 mps 740 mmHg 81%
    22:00 -5°C° 0 mm 3 mps 740 mmHg 84%
    23:00 -5°C° 0 mm 3 mps 739 mmHg 87%

    Day after tomorrow, 24 January, Friday

    Time Temperature Precipitation Wind Pressure Humidity
    00:00 -5°C° 0.1 mm 3 mps 739 mmHg 88%
    01:00 -4°C° 0.1 mm 3 mps 738 mmHg 89%
    02:00 -4°C° 0.1 mm 3 mps 738 mmHg 91%
    03:00 -4°C° 0 mm 4 mps 737 mmHg 90%
    04:00 -4°C° 0 mm 4 mps 736 mmHg 89%
    05:00 -4°C° 0 mm 5 mps 735 mmHg 89%
    06:00 -3°C° 0.6 mm 4 mps 734 mmHg 91%
    07:00 -3°C° 0.6 mm 4 mps 733 mmHg 94%
    08:00 -2°C° 0.6 mm 4 mps 733 mmHg 97%
    09:00 -1°C° 0.4 mm 4 mps 732 mmHg 96%
    10:00 0°C° 0.4 mm 4 mps 732 mmHg 96%
    11:00 0°C° 0.4 mm 4 mps 731 mmHg 96%
    12:00 +1°C° 0.3 mm 4 mps 731 mmHg 96%
    13:00 +1°C° 0.3 mm 5 mps 731 mmHg 96%
    14:00 +1°C° 0.3 mm 5 mps 731 mmHg 96%
    15:00 0°C° 0.1 mm 5 mps 731 mmHg 95%
    16:00 0°C° 0.1 mm 5 mps 731 mmHg 93%
    17:00 0°C° 0.1 mm 4 mps 731 mmHg 92%
    18:00 -1°C° 0 mm 4 mps 732 mmHg 92%
    19:00 0°C° 0 mm 3 mps 732 mmHg 92%
    20:00 -1°C° 0 mm 3 mps 732 mmHg 91%
    21:00 -1°C° 0.1 mm 3 mps 732 mmHg 93%
    22:00 -1°C° 0.1 mm 2 mps 732 mmHg 95%
    23:00 -1°C° 0.1 mm 2 mps 731 mmHg 97%

    25 January, Saturday

    Time Temperature Precipitation Wind Pressure Humidity
    00:00 -1°C° 0.1 mm 3 mps 731 mmHg 96%
    01:00 0°C° 0.1 mm 3 mps 731 mmHg 96%
    02:00 0°C° 0.1 mm 3 mps 731 mmHg 95%
    03:00 0°C° 0 mm 3 mps 731 mmHg 95%
    04:00 0°C° 0 mm 3 mps 730 mmHg 94%
    05:00 0°C° 0 mm 3 mps 730 mmHg 93%
    06:00 -1°C° 0 mm 4 mps 730 mmHg 92%
    07:00 -1°C° 0 mm 4 mps 730 mmHg 91%
    08:00 -1°C° 0 mm 5 mps 730 mmHg 90%
    09:00 -1°C° 0 mm 5 mps 730 mmHg 87%
    10:00 -1°C° 0 mm 5 mps 729 mmHg 84%
    11:00 -1°C° 0 mm 5 mps 729 mmHg 82%
    12:00 -2°C° 0 mm 6 mps 729 mmHg 77%
    13:00 -2°C° 0 mm 6 mps 729 mmHg 73%
    14:00 -1°C° 0 mm 7 mps 728 mmHg 69%
    15:00 -2°C° 0.3 mm 7 mps 729 mmHg 69%
    16:00 -3°C° 0.3 mm 7 mps 729 mmHg 69%
    17:00 -3°C° 0.3 mm 7 mps 730 mmHg 70%
    18:00 -4°C° 0 mm 6 mps 730 mmHg 70%
    19:00 -4°C° 0 mm 6 mps 731 mmHg 70%
    20:00 -5°C° 0 mm 6 mps 732 mmHg 69%
    21:00 -5°C° 0 mm 5 mps 732 mmHg 71%
    22:00 -5°C° 0 mm 5 mps 733 mmHg 72%
    23:00 -5°C° 0 mm 5 mps 733 mmHg 74%

    26 January, Sunday

    Time Temperature Precipitation Wind Pressure Humidity
    00:00 -5°C° 0 mm 5 mps 734 mmHg 76%
    01:00 -6°C° 0 mm 5 mps 734 mmHg 78%
    02:00 -6°C° 0 mm 5 mps 735 mmHg 80%
    03:00 -5°C° 0 mm 4 mps 735 mmHg 80%
    04:00 -5°C° 0 mm 4 mps 736 mmHg 81%
    05:00 -5°C° 0 mm 4 mps 736 mmHg 82%
    06:00 -5°C° 0 mm 4 mps 737 mmHg 82%
    07:00 -5°C° 0 mm 3 mps 737 mmHg 83%
    08:00 -5°C° 0 mm 3 mps 738 mmHg 83%
    09:00 -4°C° 0 mm 3 mps 738 mmHg 81%
    10:00 -4°C° 0 mm 3 mps 739 mmHg 80%
    11:00 -2°C° 0 mm 2 mps 740 mmHg 79%
    12:00 -2°C° 0 mm 2 mps 740 mmHg 79%
    13:00 -2°C° 0 mm 2 mps 740 mmHg 79%
    14:00 -1°C° 0 mm 2 mps 741 mmHg 79%
    15:00 0°C° 0 mm 1 mps 741 mmHg 84%
    16:00 -1°C° 0 mm 1 mps 741 mmHg 89%
    17:00 -1°C° 0 mm 1 mps 741 mmHg 93%
    18:00 -1°C° 0 mm 1 mps 741 mmHg 94%
    19:00 -1°C° 0 mm 1 mps 742 mmHg 95%
    20:00 -1°C° 0 mm 1 mps 742 mmHg 95%
    21:00 -3°C° 0 mm 2 mps 742 mmHg 95%
    22:00 -3°C° 0 mm 2 mps 742 mmHg 95%
    23:00 -2°C° 0 mm 2 mps 742 mmHg 94%

    27 January, Monday

    Time Temperature Precipitation Wind Pressure Humidity
    00:00 -2°C° 0.1 mm 3 mps 742 mmHg 95%
    01:00 -2°C° 0.1 mm 3 mps 742 mmHg 95%
    02:00 -2°C° 0.1 mm 3 mps 741 mmHg 96%
    03:00 -2°C° 0.3 mm 3 mps 741 mmHg 96%
    04:00 -2°C° 0.3 mm 3 mps 740 mmHg 96%
    05:00 -1°C° 0.3 mm 3 mps 740 mmHg 97%
    06:00 -1°C° 0.3 mm 3 mps 740 mmHg 97%
    07:00 -1°C° 0.3 mm 3 mps 739 mmHg 97%
    08:00 -1°C° 0.3 mm 3 mps 739 mmHg 97%
    09:00 0°C° 0.5 mm 3 mps 739 mmHg 97%
    10:00 -1°C° 0.5 mm 4 mps 739 mmHg 97%
    11:00 -1°C° 0.5 mm 4 mps 739 mmHg 97%
    12:00 -1°C° 0.1 mm 4 mps 738 mmHg 95%
    13:00 -1°C° 0.1 mm 4 mps 738 mmHg 93%
    14:00 -1°C° 0.1 mm 4 mps 737 mmHg 92%
    15:00 -1°C° 0.1 mm 4 mps 737 mmHg 93%
    16:00 -1°C° 0.1 mm 4 mps 737 mmHg 95%
    17:00 -2°C° 0.1 mm 4 mps 736 mmHg 97%
    18:00 -2°C° 0.1 mm 4 mps 736 mmHg 96%
    19:00 -2°C° 0.1 mm 4 mps 735 mmHg 96%
    20:00 -2°C° 0.1 mm 4 mps 735 mmHg 96%
    21:00 -2°C° 0.2 mm 4 mps 735 mmHg 96%
    22:00 -2°C° 0.2 mm 4 mps 735 mmHg 96%
    23:00 -2°C° 0.2 mm 4 mps 734 mmHg 97%
    Show more